,Coso Junction,Coso Junction
,PM10_1HR,PM10_1HR
,UG/M3,UG/M3
Date,Value,Null Code
01-Mar-2024 00:00,11.4,
01-Mar-2024 01:00,10.2,
01-Mar-2024 02:00,4.2,
01-Mar-2024 03:00,8.1,
01-Mar-2024 04:00,7.1,
01-Mar-2024 05:00,13,
01-Mar-2024 06:00,6,
01-Mar-2024 07:00,4.3,
01-Mar-2024 08:00,2.1,
01-Mar-2024 09:00,1.4,
01-Mar-2024 10:00,4.1,
01-Mar-2024 11:00,2,
01-Mar-2024 12:00,1.1,
01-Mar-2024 13:00,3.8,
01-Mar-2024 14:00,16.1,
01-Mar-2024 15:00,31.7,
01-Mar-2024 16:00,10.1,
01-Mar-2024 17:00,12.4,
01-Mar-2024 18:00,7.5,
01-Mar-2024 19:00,12.4,
01-Mar-2024 20:00,21,
01-Mar-2024 21:00,11.3,
01-Mar-2024 22:00,4.5,
01-Mar-2024 23:00,9.4,
02-Mar-2024 00:00,9.1,
02-Mar-2024 01:00,1.1,
02-Mar-2024 02:00,0.3,
02-Mar-2024 03:00,2.8,
02-Mar-2024 04:00,3.8,
02-Mar-2024 05:00,4.6,
02-Mar-2024 06:00,4.2,
02-Mar-2024 07:00,4.2,
02-Mar-2024 08:00,8,
02-Mar-2024 09:00,0.8,
02-Mar-2024 10:00,1.7,
02-Mar-2024 11:00,5.2,
02-Mar-2024 12:00,1.4,
02-Mar-2024 13:00,2,
02-Mar-2024 14:00,3.6,
02-Mar-2024 15:00,4.1,
02-Mar-2024 16:00,6.9,
02-Mar-2024 17:00,2.1,
02-Mar-2024 18:00,7.4,
02-Mar-2024 19:00,2.2,
02-Mar-2024 20:00,7.7,
02-Mar-2024 21:00,6,
02-Mar-2024 22:00,2.9,
02-Mar-2024 23:00,3.5,
03-Mar-2024 00:00,12.3,
03-Mar-2024 01:00,5.8,
03-Mar-2024 02:00,8.5,
03-Mar-2024 03:00,59.3,
03-Mar-2024 04:00,147.9,
03-Mar-2024 05:00,,AV
03-Mar-2024 06:00,,AV
03-Mar-2024 07:00,,AV
03-Mar-2024 08:00,,AV
03-Mar-2024 09:00,,AV
03-Mar-2024 10:00,,AV
03-Mar-2024 11:00,,AV
03-Mar-2024 12:00,,AV
03-Mar-2024 13:00,,AV
03-Mar-2024 14:00,,AV
03-Mar-2024 15:00,,AV
03-Mar-2024 16:00,,AV
03-Mar-2024 17:00,10.8,
03-Mar-2024 18:00,11.5,
03-Mar-2024 19:00,6.9,
03-Mar-2024 20:00,5.2,
03-Mar-2024 21:00,5.2,
03-Mar-2024 22:00,6.1,
03-Mar-2024 23:00,8.8,
04-Mar-2024 00:00,3.5,
04-Mar-2024 01:00,7.3,
04-Mar-2024 02:00,11.3,
04-Mar-2024 03:00,10,
04-Mar-2024 04:00,8.7,
04-Mar-2024 05:00,11.1,
04-Mar-2024 06:00,6.8,
04-Mar-2024 07:00,8.5,
04-Mar-2024 08:00,4.5,
04-Mar-2024 09:00,2.3,
04-Mar-2024 10:00,3.6,
04-Mar-2024 11:00,5.7,
04-Mar-2024 12:00,4.4,
04-Mar-2024 13:00,4.9,
04-Mar-2024 14:00,7.1,
04-Mar-2024 15:00,9.6,
04-Mar-2024 16:00,11.3,
04-Mar-2024 17:00,16,
04-Mar-2024 18:00,18.1,
04-Mar-2024 19:00,13.2,
04-Mar-2024 20:00,13.5,
04-Mar-2024 21:00,11.3,
04-Mar-2024 22:00,11.7,
04-Mar-2024 23:00,17,
05-Mar-2024 00:00,7.9,
05-Mar-2024 01:00,10.7,
05-Mar-2024 02:00,5.2,
05-Mar-2024 03:00,6.7,
05-Mar-2024 04:00,7.9,
05-Mar-2024 05:00,13.6,
05-Mar-2024 06:00,6.6,
05-Mar-2024 07:00,7.8,
05-Mar-2024 08:00,3.4,
05-Mar-2024 09:00,,BA
05-Mar-2024 10:00,,BA
05-Mar-2024 11:00,,BA
05-Mar-2024 12:00,,BA
05-Mar-2024 13:00,4.1,
05-Mar-2024 14:00,3.8,
05-Mar-2024 15:00,5.8,
05-Mar-2024 16:00,4.7,
05-Mar-2024 17:00,3.9,
05-Mar-2024 18:00,6.1,
05-Mar-2024 19:00,7.7,
05-Mar-2024 20:00,8.9,
05-Mar-2024 21:00,9.8,
05-Mar-2024 22:00,7.2,
05-Mar-2024 23:00,5.8,
06-Mar-2024 00:00,5.5,
06-Mar-2024 01:00,3.5,
06-Mar-2024 02:00,3.5,
06-Mar-2024 03:00,5.1,
06-Mar-2024 04:00,7.2,
06-Mar-2024 05:00,6.9,
06-Mar-2024 06:00,7.4,
06-Mar-2024 07:00,8.5,
06-Mar-2024 08:00,4,
06-Mar-2024 09:00,7.3,
06-Mar-2024 10:00,3.6,
06-Mar-2024 11:00,4.3,
06-Mar-2024 12:00,4.4,
06-Mar-2024 13:00,5.5,
06-Mar-2024 14:00,6.5,
06-Mar-2024 15:00,7.7,
06-Mar-2024 16:00,10,
06-Mar-2024 17:00,8,
06-Mar-2024 18:00,13.2,
06-Mar-2024 19:00,13.3,
06-Mar-2024 20:00,9.3,
06-Mar-2024 21:00,5.7,
06-Mar-2024 22:00,3.5,
06-Mar-2024 23:00,4.7,
07-Mar-2024 00:00,3.7,
07-Mar-2024 01:00,3.6,
07-Mar-2024 02:00,3.1,
07-Mar-2024 03:00,3.1,
07-Mar-2024 04:00,6,
07-Mar-2024 05:00,4.9,
07-Mar-2024 06:00,5.7,
07-Mar-2024 07:00,8,
07-Mar-2024 08:00,4.2,
07-Mar-2024 09:00,3.2,
07-Mar-2024 10:00,3.9,
07-Mar-2024 11:00,4.1,
07-Mar-2024 12:00,2.9,
07-Mar-2024 13:00,7.3,
07-Mar-2024 14:00,9.1,
07-Mar-2024 15:00,9.1,
07-Mar-2024 16:00,8.7,
07-Mar-2024 17:00,13.7,
07-Mar-2024 18:00,13.8,
07-Mar-2024 19:00,13.8,
07-Mar-2024 20:00,9.7,
07-Mar-2024 21:00,9.4,
07-Mar-2024 22:00,25.4,
07-Mar-2024 23:00,14.7,
08-Mar-2024 00:00,13.6,
08-Mar-2024 01:00,14.9,
08-Mar-2024 02:00,22.5,
08-Mar-2024 03:00,16.6,
08-Mar-2024 04:00,13.1,
08-Mar-2024 05:00,30.1,
08-Mar-2024 06:00,11.3,
08-Mar-2024 07:00,8.5,
08-Mar-2024 08:00,20,
08-Mar-2024 09:00,33.3,
08-Mar-2024 10:00,13.6,
08-Mar-2024 11:00,12.9,
08-Mar-2024 12:00,8.1,
08-Mar-2024 13:00,2.2,
08-Mar-2024 14:00,3.9,
08-Mar-2024 15:00,3,
08-Mar-2024 16:00,4.6,
08-Mar-2024 17:00,8.6,
08-Mar-2024 18:00,24.3,
08-Mar-2024 19:00,16,
08-Mar-2024 20:00,9.5,
08-Mar-2024 21:00,6.9,
08-Mar-2024 22:00,7.5,
08-Mar-2024 23:00,6.9,
09-Mar-2024 00:00,9.4,
09-Mar-2024 01:00,7.2,
09-Mar-2024 02:00,7.6,
09-Mar-2024 03:00,7.3,
09-Mar-2024 04:00,7.4,
09-Mar-2024 05:00,9.3,
09-Mar-2024 06:00,7,
09-Mar-2024 07:00,7.6,
09-Mar-2024 08:00,4,
09-Mar-2024 09:00,4,
09-Mar-2024 10:00,11.1,
09-Mar-2024 11:00,7.1,
09-Mar-2024 12:00,5.9,
09-Mar-2024 13:00,9.4,
09-Mar-2024 14:00,9,
09-Mar-2024 15:00,7.8,
09-Mar-2024 16:00,11.1,
09-Mar-2024 17:00,11.7,
09-Mar-2024 18:00,13.3,
09-Mar-2024 19:00,15.9,
09-Mar-2024 20:00,13.2,
09-Mar-2024 21:00,11.2,
09-Mar-2024 22:00,11.7,
09-Mar-2024 23:00,9.2,
10-Mar-2024 00:00,7.7,
10-Mar-2024 01:00,7.4,
10-Mar-2024 02:00,5.4,
10-Mar-2024 03:00,8.1,
10-Mar-2024 04:00,7.3,
10-Mar-2024 05:00,6.7,
10-Mar-2024 06:00,11.4,
10-Mar-2024 07:00,6.8,
10-Mar-2024 08:00,6.3,
10-Mar-2024 09:00,5.9,
10-Mar-2024 10:00,8.4,
10-Mar-2024 11:00,6.6,
10-Mar-2024 12:00,7.4,
10-Mar-2024 13:00,9.4,
10-Mar-2024 14:00,7.5,
10-Mar-2024 15:00,11.2,
10-Mar-2024 16:00,11.6,
10-Mar-2024 17:00,8.8,
10-Mar-2024 18:00,13.6,
10-Mar-2024 19:00,23.3,
10-Mar-2024 20:00,12.4,
10-Mar-2024 21:00,8.5,
10-Mar-2024 22:00,11.2,
10-Mar-2024 23:00,10.8,
11-Mar-2024 00:00,11,
11-Mar-2024 01:00,6.6,
11-Mar-2024 02:00,7.9,
11-Mar-2024 03:00,7.2,
11-Mar-2024 04:00,29.4,
11-Mar-2024 05:00,10.4,
11-Mar-2024 06:00,12,
11-Mar-2024 07:00,8.7,
11-Mar-2024 08:00,7.8,
11-Mar-2024 09:00,4.3,
11-Mar-2024 10:00,5.9,
11-Mar-2024 11:00,7.9,
11-Mar-2024 12:00,10.9,
11-Mar-2024 13:00,9.7,
11-Mar-2024 14:00,12.5,
11-Mar-2024 15:00,14.7,
11-Mar-2024 16:00,14.9,
11-Mar-2024 17:00,11.4,
11-Mar-2024 18:00,16.4,
11-Mar-2024 19:00,16.9,
11-Mar-2024 20:00,14.6,
11-Mar-2024 21:00,11.4,
11-Mar-2024 22:00,64,
11-Mar-2024 23:00,16.2,
12-Mar-2024 00:00,12.8,
12-Mar-2024 01:00,12.4,
12-Mar-2024 02:00,7.4,
12-Mar-2024 03:00,8,
12-Mar-2024 04:00,9.3,
12-Mar-2024 05:00,9.6,
12-Mar-2024 06:00,8.6,
12-Mar-2024 07:00,11.2,
12-Mar-2024 08:00,9.6,
12-Mar-2024 09:00,4.9,
12-Mar-2024 10:00,7.5,
12-Mar-2024 11:00,10.1,
12-Mar-2024 12:00,11.5,
12-Mar-2024 13:00,10.4,
12-Mar-2024 14:00,11.4,
12-Mar-2024 15:00,8.2,
12-Mar-2024 16:00,4.5,
12-Mar-2024 17:00,14.7,
12-Mar-2024 18:00,7,
12-Mar-2024 19:00,8.3,
12-Mar-2024 20:00,7.1,
12-Mar-2024 21:00,8.2,
12-Mar-2024 22:00,6.8,
12-Mar-2024 23:00,10.1,
13-Mar-2024 00:00,15.6,
13-Mar-2024 01:00,15,
13-Mar-2024 02:00,8.7,
13-Mar-2024 03:00,5.4,
13-Mar-2024 04:00,9.4,
13-Mar-2024 05:00,11.3,
13-Mar-2024 06:00,35.3,
13-Mar-2024 07:00,38.8,
13-Mar-2024 08:00,38.5,
13-Mar-2024 09:00,39.3,
13-Mar-2024 10:00,12.1,
13-Mar-2024 11:00,8.6,
13-Mar-2024 12:00,8.7,
13-Mar-2024 13:00,7.2,
13-Mar-2024 14:00,6.1,
13-Mar-2024 15:00,6.7,
13-Mar-2024 16:00,11.4,
13-Mar-2024 17:00,13,
13-Mar-2024 18:00,23.6,
13-Mar-2024 19:00,126.6,
13-Mar-2024 20:00,324.8,
13-Mar-2024 21:00,164.7,
13-Mar-2024 22:00,258.2,
13-Mar-2024 23:00,157.3,
14-Mar-2024 00:00,60.1,
14-Mar-2024 01:00,60.1,
14-Mar-2024 02:00,62.9,
14-Mar-2024 03:00,45.7,
14-Mar-2024 04:00,28,
14-Mar-2024 05:00,49.1,
14-Mar-2024 06:00,64.8,
14-Mar-2024 07:00,70,
14-Mar-2024 08:00,64.5,
14-Mar-2024 09:00,77.6,
14-Mar-2024 10:00,101.8,
14-Mar-2024 11:00,113.1,
14-Mar-2024 12:00,49.1,
14-Mar-2024 13:00,65.8,
14-Mar-2024 14:00,91.8,
14-Mar-2024 15:00,28.6,
14-Mar-2024 16:00,31.4,
14-Mar-2024 17:00,82.8,
14-Mar-2024 18:00,38.2,
14-Mar-2024 19:00,14.6,
14-Mar-2024 20:00,14,
14-Mar-2024 21:00,20.7,
14-Mar-2024 22:00,21.6,
14-Mar-2024 23:00,32.9,
15-Mar-2024 00:00,29.1,
15-Mar-2024 01:00,12,
15-Mar-2024 02:00,23.1,
15-Mar-2024 03:00,16.3,
15-Mar-2024 04:00,8.4,
15-Mar-2024 05:00,13.3,
15-Mar-2024 06:00,37.4,
15-Mar-2024 07:00,70.7,
15-Mar-2024 08:00,42,
15-Mar-2024 09:00,29.4,
15-Mar-2024 10:00,30.6,
15-Mar-2024 11:00,12.2,
15-Mar-2024 12:00,11,
15-Mar-2024 13:00,8.9,
15-Mar-2024 14:00,9.5,
15-Mar-2024 15:00,12.9,
15-Mar-2024 16:00,21.2,
15-Mar-2024 17:00,6.1,
15-Mar-2024 18:00,8.7,
15-Mar-2024 19:00,8.7,
15-Mar-2024 20:00,4.2,
15-Mar-2024 21:00,4.7,
15-Mar-2024 22:00,4.8,
15-Mar-2024 23:00,2.7,
16-Mar-2024 00:00,3.8,
16-Mar-2024 01:00,4.9,
16-Mar-2024 02:00,4.1,
16-Mar-2024 03:00,5.6,
16-Mar-2024 04:00,5.3,
16-Mar-2024 05:00,6.7,
16-Mar-2024 06:00,6.7,
16-Mar-2024 07:00,8.1,
16-Mar-2024 08:00,3.4,
16-Mar-2024 09:00,2.7,
16-Mar-2024 10:00,6.1,
16-Mar-2024 11:00,6.9,
16-Mar-2024 12:00,4.3,
16-Mar-2024 13:00,6,
16-Mar-2024 14:00,10.3,
16-Mar-2024 15:00,8.8,
16-Mar-2024 16:00,8.7,
16-Mar-2024 17:00,7.3,
16-Mar-2024 18:00,12.4,
16-Mar-2024 19:00,12.6,
16-Mar-2024 20:00,10.9,
16-Mar-2024 21:00,8.5,
16-Mar-2024 22:00,10.1,
16-Mar-2024 23:00,9.3,
17-Mar-2024 00:00,6.8,
17-Mar-2024 01:00,6.9,
17-Mar-2024 02:00,2.3,
17-Mar-2024 03:00,6.1,
17-Mar-2024 04:00,4.6,
17-Mar-2024 05:00,4.3,
17-Mar-2024 06:00,7.7,
17-Mar-2024 07:00,6,
17-Mar-2024 08:00,3,
17-Mar-2024 09:00,2.3,
17-Mar-2024 10:00,1.9,
17-Mar-2024 11:00,3.3,
17-Mar-2024 12:00,2.9,
17-Mar-2024 13:00,14.6,
17-Mar-2024 14:00,5.5,
17-Mar-2024 15:00,5.2,
17-Mar-2024 16:00,7.7,
17-Mar-2024 17:00,8.4,
17-Mar-2024 18:00,10.1,
17-Mar-2024 19:00,9.8,
17-Mar-2024 20:00,11.7,
17-Mar-2024 21:00,8.5,
17-Mar-2024 22:00,7.8,
17-Mar-2024 23:00,7.8,
18-Mar-2024 00:00,6.6,
18-Mar-2024 01:00,6.6,
18-Mar-2024 02:00,6.1,
18-Mar-2024 03:00,3,
18-Mar-2024 04:00,4.7,
18-Mar-2024 05:00,6.4,
18-Mar-2024 06:00,5.9,
18-Mar-2024 07:00,3.7,
18-Mar-2024 08:00,2.2,
18-Mar-2024 09:00,5.6,
18-Mar-2024 10:00,3.8,
18-Mar-2024 11:00,4.4,
18-Mar-2024 12:00,6.2,
18-Mar-2024 13:00,3.2,
18-Mar-2024 14:00,5.2,
18-Mar-2024 15:00,3.8,
18-Mar-2024 16:00,6.3,
18-Mar-2024 17:00,6.2,
18-Mar-2024 18:00,7.6,
18-Mar-2024 19:00,12,
18-Mar-2024 20:00,11.7,
18-Mar-2024 21:00,9.3,
18-Mar-2024 22:00,9.5,
18-Mar-2024 23:00,7.3,
19-Mar-2024 00:00,7.7,
19-Mar-2024 01:00,2.3,
19-Mar-2024 02:00,5.2,
19-Mar-2024 03:00,4.3,
19-Mar-2024 04:00,4.1,
19-Mar-2024 05:00,4.8,
19-Mar-2024 06:00,5.9,
19-Mar-2024 07:00,2.7,
19-Mar-2024 08:00,11.3,
19-Mar-2024 09:00,10.8,
19-Mar-2024 10:00,3,
19-Mar-2024 11:00,4.8,
19-Mar-2024 12:00,1.9,
19-Mar-2024 13:00,3.3,
19-Mar-2024 14:00,7.7,
19-Mar-2024 15:00,6.9,
19-Mar-2024 16:00,9.2,
19-Mar-2024 17:00,11.1,
19-Mar-2024 18:00,12.7,
19-Mar-2024 19:00,14.6,
19-Mar-2024 20:00,12.1,
19-Mar-2024 21:00,10.2,
19-Mar-2024 22:00,11.2,
19-Mar-2024 23:00,6.5,
20-Mar-2024 00:00,8.1,
20-Mar-2024 01:00,5.6,
20-Mar-2024 02:00,6.5,
20-Mar-2024 03:00,7.7,
20-Mar-2024 04:00,8.5,
20-Mar-2024 05:00,36.2,
20-Mar-2024 06:00,8.6,
20-Mar-2024 07:00,6.5,
20-Mar-2024 08:00,3,
20-Mar-2024 09:00,5.7,
20-Mar-2024 10:00,8.1,
20-Mar-2024 11:00,7.4,
20-Mar-2024 12:00,12.2,
20-Mar-2024 13:00,8.6,
20-Mar-2024 14:00,13.5,
20-Mar-2024 15:00,14.9,
20-Mar-2024 16:00,8.8,
20-Mar-2024 17:00,8.5,
20-Mar-2024 18:00,12.6,
20-Mar-2024 19:00,12.2,
20-Mar-2024 20:00,13.7,
20-Mar-2024 21:00,11.3,
20-Mar-2024 22:00,13.9,
20-Mar-2024 23:00,19.8,
21-Mar-2024 00:00,24.2,
21-Mar-2024 01:00,13.1,
21-Mar-2024 02:00,14.3,
21-Mar-2024 03:00,10.2,
21-Mar-2024 04:00,17.4,
21-Mar-2024 05:00,13.1,
21-Mar-2024 06:00,11.7,
21-Mar-2024 07:00,5.7,
21-Mar-2024 08:00,3.8,
21-Mar-2024 09:00,6.8,
21-Mar-2024 10:00,4.5,
21-Mar-2024 11:00,8.8,
21-Mar-2024 12:00,11.6,
21-Mar-2024 13:00,8.7,
21-Mar-2024 14:00,11,
21-Mar-2024 15:00,13.8,
21-Mar-2024 16:00,19.8,
21-Mar-2024 17:00,11.8,
21-Mar-2024 18:00,14.8,
21-Mar-2024 19:00,17,
21-Mar-2024 20:00,21.3,
21-Mar-2024 21:00,17.6,
21-Mar-2024 22:00,13.8,
21-Mar-2024 23:00,14,
22-Mar-2024 00:00,10.1,
22-Mar-2024 01:00,11.7,
22-Mar-2024 02:00,7.8,
22-Mar-2024 03:00,10,
22-Mar-2024 04:00,10.5,
22-Mar-2024 05:00,27.3,
22-Mar-2024 06:00,17.3,
22-Mar-2024 07:00,12.9,
22-Mar-2024 08:00,6.2,
22-Mar-2024 09:00,8.6,
22-Mar-2024 10:00,10.6,
22-Mar-2024 11:00,12.1,
22-Mar-2024 12:00,9.5,
22-Mar-2024 13:00,9.6,
22-Mar-2024 14:00,15.5,
22-Mar-2024 15:00,9,
22-Mar-2024 16:00,11.1,
22-Mar-2024 17:00,12.3,
22-Mar-2024 18:00,9,
22-Mar-2024 19:00,9.6,
22-Mar-2024 20:00,6.9,
22-Mar-2024 21:00,8.6,
22-Mar-2024 22:00,6.8,
22-Mar-2024 23:00,17.1,
23-Mar-2024 00:00,8.3,
23-Mar-2024 01:00,4.4,
23-Mar-2024 02:00,2,
23-Mar-2024 03:00,3.6,
23-Mar-2024 04:00,8.5,
23-Mar-2024 05:00,6.9,
23-Mar-2024 06:00,2,
23-Mar-2024 07:00,6.4,
23-Mar-2024 08:00,1.5,
23-Mar-2024 09:00,8,
23-Mar-2024 10:00,3,
23-Mar-2024 11:00,2.8,
23-Mar-2024 12:00,1,
23-Mar-2024 13:00,2.8,
23-Mar-2024 14:00,2.2,
23-Mar-2024 15:00,23.9,
23-Mar-2024 16:00,25.9,
23-Mar-2024 17:00,17.2,
23-Mar-2024 18:00,19.5,
23-Mar-2024 19:00,8.5,
23-Mar-2024 20:00,6.8,
23-Mar-2024 21:00,5.5,
23-Mar-2024 22:00,6.6,
23-Mar-2024 23:00,5.5,
24-Mar-2024 00:00,3.5,
24-Mar-2024 01:00,5.1,
24-Mar-2024 02:00,2.5,
24-Mar-2024 03:00,4.7,
24-Mar-2024 04:00,4.4,
24-Mar-2024 05:00,4.6,
24-Mar-2024 06:00,4.2,
24-Mar-2024 07:00,-0.5,
24-Mar-2024 08:00,1.1,
24-Mar-2024 09:00,0.4,
24-Mar-2024 10:00,2,
24-Mar-2024 11:00,2.7,
24-Mar-2024 12:00,7.7,
24-Mar-2024 13:00,8.3,
24-Mar-2024 14:00,8.5,
24-Mar-2024 15:00,14.1,
24-Mar-2024 16:00,13.1,
24-Mar-2024 17:00,12.5,
24-Mar-2024 18:00,15.5,
24-Mar-2024 19:00,10.1,
24-Mar-2024 20:00,3.1,
24-Mar-2024 21:00,5.7,
24-Mar-2024 22:00,11.8,
24-Mar-2024 23:00,8.2,
25-Mar-2024 00:00,5.8,
25-Mar-2024 01:00,4.1,
25-Mar-2024 02:00,2.4,
25-Mar-2024 03:00,5.2,
25-Mar-2024 04:00,5,
25-Mar-2024 05:00,5.1,
25-Mar-2024 06:00,5.5,
25-Mar-2024 07:00,0.2,
25-Mar-2024 08:00,2,
25-Mar-2024 09:00,0.6,
25-Mar-2024 10:00,-3.2,
25-Mar-2024 11:00,1.3,
25-Mar-2024 12:00,2.9,
25-Mar-2024 13:00,3.6,
25-Mar-2024 14:00,5.9,
25-Mar-2024 15:00,8.8,
25-Mar-2024 16:00,6.5,
25-Mar-2024 17:00,6.5,
25-Mar-2024 18:00,8.7,
25-Mar-2024 19:00,9.4,
25-Mar-2024 20:00,8.6,
25-Mar-2024 21:00,13,
25-Mar-2024 22:00,11,
25-Mar-2024 23:00,18.6,
26-Mar-2024 00:00,3,
26-Mar-2024 01:00,8,
26-Mar-2024 02:00,6.5,
26-Mar-2024 03:00,7,
26-Mar-2024 04:00,6.2,
26-Mar-2024 05:00,11.3,
26-Mar-2024 06:00,6.2,
26-Mar-2024 07:00,,AX
26-Mar-2024 08:00,,AX
26-Mar-2024 09:00,,AX
26-Mar-2024 10:00,,AX
26-Mar-2024 11:00,3.2,
26-Mar-2024 12:00,7.8,
26-Mar-2024 13:00,7.9,
26-Mar-2024 14:00,10.4,
26-Mar-2024 15:00,9.2,
26-Mar-2024 16:00,10.4,
26-Mar-2024 17:00,12.7,
26-Mar-2024 18:00,14.5,
26-Mar-2024 19:00,18.2,
26-Mar-2024 20:00,16.3,
26-Mar-2024 21:00,17,
26-Mar-2024 22:00,9.8,
26-Mar-2024 23:00,11,
27-Mar-2024 00:00,10.4,
27-Mar-2024 01:00,9,
27-Mar-2024 02:00,8.2,
27-Mar-2024 03:00,9.5,
27-Mar-2024 04:00,11.1,
27-Mar-2024 05:00,21.1,
27-Mar-2024 06:00,15.6,
27-Mar-2024 07:00,9.9,
27-Mar-2024 08:00,6.2,
27-Mar-2024 09:00,9.8,
27-Mar-2024 10:00,9.9,
27-Mar-2024 11:00,12.2,
27-Mar-2024 12:00,9.8,
27-Mar-2024 13:00,10.7,
27-Mar-2024 14:00,10.6,
27-Mar-2024 15:00,10.4,
27-Mar-2024 16:00,24.2,
27-Mar-2024 17:00,8.9,
27-Mar-2024 18:00,11.8,
27-Mar-2024 19:00,13.7,
27-Mar-2024 20:00,14,
27-Mar-2024 21:00,20.2,
27-Mar-2024 22:00,21.8,
27-Mar-2024 23:00,13.7,
28-Mar-2024 00:00,15.6,
28-Mar-2024 01:00,11.5,
28-Mar-2024 02:00,12.3,
28-Mar-2024 03:00,12.7,
28-Mar-2024 04:00,19.9,
28-Mar-2024 05:00,5.5,
28-Mar-2024 06:00,9.4,
28-Mar-2024 07:00,6.1,
28-Mar-2024 08:00,3.7,
28-Mar-2024 09:00,2.9,
28-Mar-2024 10:00,3.2,
28-Mar-2024 11:00,-2.3,
28-Mar-2024 12:00,-1.3,
28-Mar-2024 13:00,1.1,
28-Mar-2024 14:00,1.2,
28-Mar-2024 15:00,10.1,
28-Mar-2024 16:00,5.9,
28-Mar-2024 17:00,6.5,
28-Mar-2024 18:00,1.5,
28-Mar-2024 19:00,8.9,
28-Mar-2024 20:00,36.6,
28-Mar-2024 21:00,11.9,
28-Mar-2024 22:00,9.2,
28-Mar-2024 23:00,16.8,
29-Mar-2024 00:00,8.4,
29-Mar-2024 01:00,9.1,
29-Mar-2024 02:00,12.1,
29-Mar-2024 03:00,9.5,
29-Mar-2024 04:00,13,
29-Mar-2024 05:00,11.8,
29-Mar-2024 06:00,9.5,
29-Mar-2024 07:00,4.9,
29-Mar-2024 08:00,5.3,
29-Mar-2024 09:00,6.7,
29-Mar-2024 10:00,5,
29-Mar-2024 11:00,14.3,
29-Mar-2024 12:00,21.3,
29-Mar-2024 13:00,11.4,
29-Mar-2024 14:00,5.4,
29-Mar-2024 15:00,18.3,
29-Mar-2024 16:00,15.9,
29-Mar-2024 17:00,12.7,
29-Mar-2024 18:00,22.2,
29-Mar-2024 19:00,24.5,
29-Mar-2024 20:00,19,
29-Mar-2024 21:00,10.8,
29-Mar-2024 22:00,8.5,
29-Mar-2024 23:00,8.5,
30-Mar-2024 00:00,8.8,
30-Mar-2024 01:00,6.5,
30-Mar-2024 02:00,7.5,
30-Mar-2024 03:00,8,
30-Mar-2024 04:00,5.8,
30-Mar-2024 05:00,4.9,
30-Mar-2024 06:00,3.7,
30-Mar-2024 07:00,3.9,
30-Mar-2024 08:00,5.2,
30-Mar-2024 09:00,0.7,
30-Mar-2024 10:00,5.6,
30-Mar-2024 11:00,4.1,
30-Mar-2024 12:00,0.4,
30-Mar-2024 13:00,3,
30-Mar-2024 14:00,1.9,
30-Mar-2024 15:00,2.4,
30-Mar-2024 16:00,4.3,
30-Mar-2024 17:00,5.1,
30-Mar-2024 18:00,3.5,
30-Mar-2024 19:00,4.8,
30-Mar-2024 20:00,4.2,
30-Mar-2024 21:00,6.3,
30-Mar-2024 22:00,4.9,
30-Mar-2024 23:00,5.7,
31-Mar-2024 00:00,5.1,
31-Mar-2024 01:00,4.7,
31-Mar-2024 02:00,3.7,
31-Mar-2024 03:00,5.7,
31-Mar-2024 04:00,4.3,
31-Mar-2024 05:00,6.7,
31-Mar-2024 06:00,6.8,
31-Mar-2024 07:00,5.5,
31-Mar-2024 08:00,3.1,
31-Mar-2024 09:00,4,
31-Mar-2024 10:00,4.2,
31-Mar-2024 11:00,2.6,
31-Mar-2024 12:00,4.4,
31-Mar-2024 13:00,4.5,
31-Mar-2024 14:00,4.5,
31-Mar-2024 15:00,2.8,
31-Mar-2024 16:00,2.5,
31-Mar-2024 17:00,11.5,
31-Mar-2024 18:00,15.7,
31-Mar-2024 19:00,7.7,
31-Mar-2024 20:00,5.8,
31-Mar-2024 21:00,3.8,
31-Mar-2024 22:00,2.9,
31-Mar-2024 23:00,4.7,
